RH
98 64 28 19 12 14 76 99 98 97 95 96 70 71 69 98 96 94 92 99 94 85 68 70 87 92 73 90 94 83 76 84 78
99 63 33 20 13 14 35 90 94 89 92 93 60 60 91 99 94 95 95 88 84 79 78 86 95 96 87 80 87 87 90 76 67
98 46 29 17 13 16 65 88 59 85 79 59 64 90 97 99 95 98 99 89 95 90 94 97 94 90 82 83 80 88 94 85 41
49 33 23 15 14 20 72 55 91 94 61 47 88 94 96 93 93 88 95 76 96 85 98 99 94 94 89 89 76 80 97 89 58
24 19 17 17 14 25 59 70 89 71 50 79 92 93 87 89 89 94 96 91 97 99 93 99 99 97 81 94 75 83 95 97 94
26 23 16 32 20 30 42 88 87 58 77 91 94 89 89 85 85 92 90 95 93 98 97 95 100 100 99 98 93 92 94 95 93
48 25 19 46 25 46 77 76 84 70 89 95 91 87 88 88 91 97 89 94 98 97 98 98 99 99 99 96 95 92 98 93 61
54 45 62 84 34 78 98 74 95 89 89 99 88 90 86 84 88 96 90 92 97 99 99 98 98 98 98 99 100 89 77 96 90
79 78 90 94 70 90 99 93 95 92 89 99 89 88 88 87 89 97 94 91 92 96 99 95 98 98 100 100 98 100 100 73 98
90 73 82 91 92 92 100 94 96 90 90 100 96 90 87 92 91 96 91 98 91 96 96 97 98 99 99 99 100 100 99 99 84
93 85 66 79 73 82 98 94 93 94 93 100 86 83 92 93 94 98 100 94 90 92 95 98 97 98 99 99 100 100 96 87 68
86 90 78 54 80 77 95 96 94 100 99 100 90 88 90 95 94 98 94 90 90 88 93 94 97 98 98 99 99 100 81 65 33
99 96 88 70 43 78 94 97 96 100 100 96 90 87 92 97 90 96 98 94 92 90 92 94 94 98 98 99 100 100 99 87 65
100 100 95 81 53 40 47 97 99 94 99 97 92 88 88 87 74 91 76 85 97 95 95 97 97 98 98 99 100 99 82 99 92
100 100 98 83 58 84 50 82 96 86 89 100 94 88 82 86 83 83 58 58 67 68 91 98 98 97 99 98 99 80 68 100 99
100 100 100 91 72 73 88 81 90 87 89 100 92 86 84 84 85 89 83 74 73 60 50 87 95 99 99 100 100 98 50 99 99
86 97 100 98 84 71 92 83 94 95 97 95 85 97 93 87 85 88 89 90 87 72 53 48 73 90 98 90 63 89 100 78 100
84 93 98 98 87 76 79 89 86 95 99 100 90 98 98 98 98 87 86 89 87 77 79 48 41 47 90 66 46 47 77 98 100
78 73 97 93 81 77 64 74 98 98 98 99 93 91 86 93 95 99 93 86 86 81 72 69 39 36 40 50 43 39 37 94 98
66 58 66 92 85 76 69 61 68 100 96 87 88 87 90 90 86 90 97 87 84 82 75 73 48 37 42 39 36 36 45 60 93
Wind_Speed
11 10 8 6 7 7 13 12 13 12 13 11 10 11 17 19 17 19 17 16 12 9 16 20 16 14 13 12 12 10 9 9 11
12 10 9 7 7 7 9 13 11 14 12 10 6 11 19 13 20 18 15 12 8 14 20 17 13 10 10 7 8 7 8 5 5
12 10 9 8 8 7 11 13 13 11 11 10 14 20 18 16 14 13 12 11 11 13 18 16 11 6 6 3 5 8 10 7 7
9 10 9 8 7 8 13 14 14 13 13 11 19 15 17 13 11 12 8 8 10 14 17 13 10 7 5 3 3 12 14 12 12
6 8 8 9 8 10 12 17 14 13 13 20 17 15 12 10 10 11 10 8 13 9 14 12 7 6 5 8 9 11 12 14 15
6 8 9 10 8 11 12 17 14 15 19 17 15 16 11 8 9 9 8 10 9 10 9 7 8 10 11 11 13 13 14 14 15
7 8 9 11 9 14 14 19 16 15 17 16 16 13 9 8 9 10 7 6 6 8 9 11 9 11 12 13 12 13 14 14 14
11 10 11 11 11 14 15 19 16 13 14 15 17 12 8 8 8 10 7 4 8 9 9 9 10 12 10 12 11 11 12 13 13
13 12 13 12 14 15 15 15 14 14 15 14 18 11 8 8 9 11 10 6 3 6 10 7 8 9 10 10 11 11 13 12 13
17 14 14 13 14 17 16 16 16 15 16 15 16 13 8 9 10 10 13 11 3 6 7 4 7 8 8 8 10 11 12 11 10
22 17 15 14 15 17 17 16 17 16 16 16 17 15 9 8 9 12 13 9 4 7 5 5 6 5 7 6 8 9 11 8 10
24 22 18 16 15 16 18 17 18 17 16 16 18 15 10 9 9 11 13 13 8 8 6 4 5 5 7 3 5 6 6 7 8
28 27 24 19 17 18 19 19 19 18 17 19 20 17 12 10 10 12 13 13 11 9 6 5 3 3 3 4 3 6 7 6 8
31 33 29 24 21 20 23 21 23 24 20 19 21 17 13 9 10 11 11 11 10 9 9 8 7 4 3 3 1 3 5 6 6
28 34 32 29 26 20 26 27 28 27 25 19 19 20 16 12 11 10 11 11 9 8 7 6 6 6 4 3 2 1 6 5 2
30 30 37 34 30 25 25 30 31 31 27 28 23 22 19 18 16 12 11 11 8 8 9 8 5 6 7 5 3 1 2 6 3
26 25 35 32 29 27 25 33 33 33 32 27 25 22 21 22 21 18 15 14 11 10 10 11 10 9 7 6 3 3 2 3 5
27 26 29 28 27 32 29 32 36 36 35 25 19 16 11 24 22 23 20 19 18 15 12 11 13 13 11 9 7 6 4 3 4
30 29 31 28 27 30 31 32 36 37 37 34 29 20 17 14 11 21 23 23 22 20 16 14 14 14 14 14 11 9 7 6 5
34 32 33 32 33 28 32 35 36 33 33 41 38 30 20 14 9 9 21 29 27 25 21 17 16 16 16 14 12 11 10 7 9
Wind_Direction
182 170 156 151 157 175 148 138 134 138 133 125 119 106 114 88 108 104 111 102 107 110 115 105 92 97 99 102 95 93 97 82 91
190 181 167 167 172 179 163 148 159 145 143 147 126 134 111 118 113 109 112 103 122 108 112 91 99 98 97 108 95 89 76 82 76
193 188 177 179 179 181 152 166 143 149 160 144 131 127 115 113 108 105 107 137 122 107 118 99 105 99 102 94 105 78 66 71 61
205 183 182 188 186 178 165 151 143 158 152 148 138 130 123 113 110 99 100 124 111 127 140 121 123 110 126 128 86 66 59 69 66
213 185 187 193 191 180 172 148 156 148 140 142 143 136 114 112 105 102 110 109 106 105 160 144 118 108 83 94 80 73 74 68 71
224 188 195 193 194 183 172 154 161 153 151 149 150 145 124 117 111 111 120 110 122 121 128 146 102 82 82 88 84 85 75 73 71
205 214 199 191 199 179 162 164 164 155 156 154 156 152 130 118 121 125 130 124 122 118 104 98 107 89 93 89 84 82 79 74 77
215 203 190 187 188 173 166 173 168 166 164 165 165 152 147 129 127 140 137 116 106 122 116 107 102 105 91 91 93 84 89 76 78
214 196 186 190 178 176 174 175 181 174 168 171 169 159 154 146 135 140 152 135 109 129 125 117 119 110 102 94 87 91 86 94 75
221 214 195 192 184 189 180 182 179 174 170 170 174 170 154 146 142 151 147 149 136 124 131 124 113 103 105 97 95 89 91 83 79
228 218 211 199 196 193 184 184 179 177 177 180 183 185 165 148 148 144 146 153 164 124 128 122 118 122 103 91 102 101 91 88 95
225 232 218 214 197 200 182 185 182 180 180 184 186 190 188 159 156 157 170 164 154 154 155 169 143 129 128 118 106 105 109 97 97
235 224 230 219 209 200 190 185 185 183 183 186 189 195 193 164 160 165 172 177 174 173 179 160 170 144 126 110 113 99 88 83 95
238 241 222 225 212 211 197 188 191 186 182 186 192 193 199 192 176 164 166 168 166 187 202 189 181 176 168 138 154 139 133 97 98
232 226 234 218 217 201 202 193 199 194 184 180 192 199 200 202 197 189 185 184 192 195 185 201 208 200 191 177 177 229 124 100 98
226 234 230 213 213 207 203 199 199 194 190 186 191 198 203 205 212 214 212 207 214 219 210 208 200 215 202 176 218 119 123 148 142
229 231 229 222 212 209 205 204 200 197 193 192 191 191 204 211 212 214 223 227 222 225 227 230 226 221 207 223 223 191 175 128 114
230 229 229 217 224 219 209 207 207 202 196 201 189 183 204 211 217 219 224 236 237 226 232 234 235 237 224 238 248 254 210 166 182
234 229 221 226 222 217 217 214 211 209 203 203 200 204 213 196 221 226 225 232 237 240 231 237 236 234 238 238 240 243 240 171 177
230 232 229 223 223 222 220 218 210 205 215 211 206 206 211 200 207 219 226 232 235 240 237 236 238 235 237 239 240 235 240 204 207